CZ-6A DEB, 60811

Orbit data source: Space-Track

CZ-6A DEB, 60811 is space debris in LEO originally from a launch on Tue, 06 Aug 2024 UTC launched from the Taiyaun Space Center, China (TSC). Debris objects in space refer to the collection of defunct objects orbiting the Earth. Examples of debris include non-operational satellites, rocket bodies, and fragments generated from explosions, collisions, or faulty payload assembly.

Loading next visibility...
Identifier
60811, 2024-140GN
Orbit
LEO
Country
Flag of CNCN / PRC
Related business
Manufacturer
SAST
Mission
Spacecraft
Bus & Motor
Unknown
Mass
Unknown
Launch date (UTC)
2024-08-06 (2 years ago)
Launch vehicle
Unknown
Launch site
Taiyaun Space Center, China (TSC)
Object type
Payload
Rocket body
Debris
Shape & HBR
Unknown shape, 0.2 m
Radar Cross Section
Medium (>0.1 m² and <1 m²)

Expand to show TLE details & history
Last TLE update: 10 hours ago

TLE from 10 hours ago
0 CZ-6A DEB
1 60811U 24140GN  26171.45255524  .00007637  00000-0  76851-3 0  9999
2 60811  88.6787 238.7547 0133140 142.9901 218.0602 14.84609204 99898
Epoch: 2026-06-20T10:51Z
TLE epoch observation values (Epoch: 2026-06-20T10:51:40.772Z)
Latitude
-0.00006°
Longitude
167.16784°
Altitude
691.745 km
Speed
7.471 km/s
True Right ascension
15h 55m 01s
True Declination
0° 00' 00"
Sunlit
Object was in full shadow at epoch
Visualization orbit readout
Latitude
Unknown
Longitude
Unknown
Altitude
Unknown
Speed
Unknown
Apparent Right ascension
Unknown
Apparent Declination
Unknown
Sunlit
N/A
Visualization observer readout
Local Sidereal Time
07:19:20
Azimuth
Unknown
Elevation
Unknown
Doppler factor
Unknown
Orbital elements
Apogee altitude
704.736 km
Perigee altitude
518.611 km
Semi-major axis
6,989.81 km
Eccentricity
0.01331
Inclination
88.6787°
RAAN
238.7547°
Arg. of periapsis
142.9901°
True anomaly
217.13185°
Mean anomaly
218.0602°
Eccentric anomaly
217.59481°
Mean motion
3.71403 °/min
Orbital period
96.93 mins
BSTAR
0.00076851
Loading maneuver chart data...
Computing Atmospheric mass density...
Loading historical data...
Loading historical data...
Loading historical data...
Loading historical data...
Loading historical data...
Loading historical data...
Loading historical data...

Documentation

Showing up to 5 results
|